Skip Page Navigation
NASA JPL Caltech
NASA Logo - Jet Propulsion Laboratory + View the NASA Portal
+ Center for Near-Earth Object Studies
JPL Home Earth Solar System Stars & Galaxies Technology
JPL Solar System Dynamics
BODIES ORBITS EPHEMERIDES TOOLS PHYSICAL DATA DISCOVERY FAQ SITE MAP
JPL Small-Body Database Browser
Search: [ help ]  
70059 (1999 JD21)
Classification: Main-belt Asteroid          SPK-ID: 2070059
Ephemeris | Orbit Diagram | Orbital Elements | Mission Design | Physical Parameters | Discovery Circumstances | Close-Approach Data ]

[ hide orbit diagram ]

For accurate long-term ephemerides, please instead use our Horizons system.This orbit viewer was implemented using two-body methods, and hence should not be used for determining accurate long-term trajectories (over several years or decades) or planetary encounter circumstances.


[ revert to old Java-based viewer ]

Orbital Elements at Epoch 2459000.5 (2020-May-31.0) TDB
Reference: JPL 22 (heliocentric ecliptic J2000)
 Element Value Uncertainty (1-sigma)   Units 
e .1206211937271332 2.9362e-08  
a 2.194685983313538 7.0286e-09 au
q 1.929960340150052 6.3804e-08 au
i 2.397628542510164 3.8819e-06 deg
node 36.41966932393468 0.00010359 deg
peri 202.9434165834178 0.00010572 deg
M 156.722622648551 2.1831e-05 deg
tp 2458483.505168092194
(2018-Dec-31.00516809)
7.1291e-05 TDB
period 1187.563967099876
3.25
5.7049e-06
1.562e-08
d
yr
n .3031415654005973 1.4562e-09 deg/d
Q 2.459411626477024 7.8764e-09 au
  Orbit Determination Parameters
   # obs. used (total)      804  
   data-arc span      7858 days (21.51 yr)  
   first obs. used      1999-04-09  
   last obs. used      2020-10-13  
   planetary ephem.      DE431  
   SB-pert. ephem.      SB431-N16  
   condition code      0  
   norm. resid. RMS      .59799  
   source      ORB  
   producer      Otto Matic  
   solution date      2020-Nov-12 22:02:19  

Additional Information
 Earth MOID = .917947 au 
 Jupiter MOID = 2.53992 au 
 T_jup = 3.659 
[ hide covariance matrix ]
Orbital Elements at Epoch 2456764.5 (2014-Apr-17.0) TDB
Reference: JPL 22 (heliocentric ecliptic J2000)
 Element Value Uncertainty (1-sigma)   Units 
e .1210093922505253 2.9394e-08  
q 1.929192573617152 6.3933e-08 au
tp 2457295.447806040386
(2015-Sep-29.94780604)
6.9659e-05 TDB
node 36.48186522513057 0.00010351 deg
peri 202.8898350172267 0.00010562 deg
i 2.398823465501373 3.882e-06 deg
  Orbit Determination Parameters
   # obs. used (total)      804  
   data-arc span      7858 days (21.51 yr)  
   first obs. used      1999-04-09  
   last obs. used      2020-10-13  
   planetary ephem.      DE431  
   SB-pert. ephem.      SB431-N16  
   condition code      0  
   norm. resid. RMS      .59799  
   source      ORB  
   producer      Otto Matic  
   solution date      2020-Nov-12 22:02:19  

Additional Information
 Jupiter MOID = 2.53992 au 
 T_jup = 3.659 
Orbit Covariance (6×6)
  e q tp node peri i
e 8.640114319096391E-16 -1.870558465808287E-15 -4.803841962461191E-13 -9.716750327141855E-16 -1.410203845233159E-13 -1.647956486165235E-16
q -1.870558465808287E-15 4.08737335222551E-15 1.14441091792714E-12 2.752513879597219E-15 3.310462310104184E-13 3.597348446437988E-16
tp -4.803841962461191E-13 1.14441091792714E-12 4.852415314359333E-9 8.220772170593172E-12 1.482432812591034E-9 4.609646809219885E-13
node -9.716750327141855E-16 2.752513879597219E-15 8.220772170593172E-12 1.071387930705017E-8 -1.070168916314261E-8 -1.635748391966743E-10
peri -1.410203845233159E-13 3.310462310104184E-13 1.482432812591034E-9 -1.070168916314261E-8 1.115581787451474E-8 1.635873044701633E-10
i -1.647956486165235E-16 3.597348446437988E-16 4.609646809219885E-13 -1.635748391966743E-10 1.635873044701633E-10 1.506991337839787E-11

Ephemeris | Orbit Diagram | Orbital Elements | Mission Design | Physical Parameters | Discovery Circumstances | Close-Approach Data ]

Physical Parameter Table
Parameter Symbol Value Units Sigma Reference Notes
absolute magnitude H 16.1   n/a MPO324915  

70059 (1999 JD21)          Discovered 1999-May-10 by LINEAR at Socorro
Reference: 20031109/Numbers.arcLast Updated: 2004-04-19

[ show close-approach data ]
Alternate Designations
 1999 JD21 = 2000 VO3 
Ephemeris | Orbit Diagram | Orbital Elements | Mission Design | Physical Parameters | Discovery Circumstances | Close-Approach Data ]
ABOUT SSD CREDITS/AWARDS PRIVACY/COPYRIGHT GLOSSARY LINKS
FirstGov 2020-Dec-02 03:52 UT
(server date/time)  
NASA Home Page
Site Manager:   Ryan S. Park
Webmaster  Alan B. Chamberlin